STARLINK-32520, 62021

Orbit data source: Space-Track

STARLINK-32520, 62021 is a payload satellite owned by SpaceX/Seattle (US) in LEO that was launched on Mon, 18 Nov 2024 UTC via an FALCON 9 launch vehicle from the Air Force Western Test Range (AFWTR). Payload-class satellites include a variety of spacecraft equipped with specific instruments for various scientific and technological missions. These include communications satellites like Starlink; space stations such as the ISS; scientific satellites like the Hubble; Earth observation satellites from companies like Planet Labs, Umbra, and HawkEye 360; GPS; miniature CubeSats for education and research; and military/defense satellites.

Loading next visibility...
Identifier
62021, 2024-213P
Orbit
LEO
Last TLE update
21 hours ago
Origin
Manufacturer
SpaceX/Seattle
Mission
Operational Commercial Communications
Bus & Motor
STARLINK V2M, Unknown motor
Mass
730 kg wet, ~700 kg dry
Launch date (UTC)
2024-11-18 (6 months ago)
Launch vehicle
FALCON 9
Launch site
Air Force Western Test Range (AFWTR)
Object type
Payload
Rocket body
Debris
Shape & HBR
Box + 2 Pan, 29 m
Radar Cross Section
36.964 m², Large (>1 m²)

Expand to show TLE details & history

TLE from 21 hours ago
0 STARLINK-32520
1 62021U 24213P   25128.42984712  .00000808  00000-0  39437-4 0  9994
2 62021  53.1597 146.3465 0001254  89.5718 270.5426 15.30182453 26413
Epoch: 2025-05-08T10:18Z
Definitive object data (Epoch: 2025-05-08T10:18:58.791Z)
Latitude
-0.00004°
Longitude
125.10105°
Altitude
476.159 km
Speed
7.629 km/s
True Right ascension
09h 45m 23s
True Declination
0° 00' 00"
Sunlit
Object was in daylight at TLE epoch
Visualization TLE readout
Latitude
-44.46153°
Longitude
-12.06095°
Altitude
491.001 km
Speed
7.619 km/s
Apparent Right ascension
02h 15m 02s
Apparent Declination
-44° 48' 41"
Sunlit
Object is in daylight
Visualization observer readout
Local Sidereal Time
15:53:35
Azimuth
113.203° SE
Elevation
-71.231°
Doppler factor
1
Orbital elements
Apogee altitude
476.383 km
Perigee altitude
474.664 km
Semi-major axis
6,853.661 km
Eccentricity
0.0001254
Inclination
53.1597°
RAAN
146.3465°
Arg. of periapsis
89.5718°
True anomaly
270.52823°
Mean anomaly
270.5426°
Eccentric anomaly
270.53542°
Mean motion
3.82524 °/min
BSTAR
0.000039437
Orbital period
94.11 mins
Loading maneuver chart data...
Loading SW <> Apogee altitude chart data...
Loading historical data...
Loading historical data...
Loading historical data...
Loading historical data...
Loading historical data...
Loading historical data...
Loading historical data...

STARLINK-32520 Visibility forecast

Observer location: undefined°, undefined°

Span
Click to sort rows by Start time (UTC) header in descending order
Start Az.
Max El. time (UTC)
Max El. Az.
Max El.
End time (UTC)
End Az.
4 mins2025-05-09 08:41:32.134Z343.441° N2025-05-09 08:43:32.134Z17.929° NNE14.682°2025-05-09 08:45:32.134Z52.479° ENE
6 mins2025-05-09 10:19:32.134Z320.659° NNW2025-05-09 10:22:32.134Z72.817° E38.724°2025-05-09 10:25:32.134Z117.299° SE
5 mins2025-05-10 03:15:32.134Z209.069° SW2025-05-10 03:17:32.134Z138.934° SSE40.747°2025-05-10 03:20:32.134Z58.646° ENE
4 mins2025-05-10 04:54:32.134Z305.934° NW2025-05-10 04:55:32.134Z329.429° NNW20.894°2025-05-10 04:58:32.134Z26.579° NE
|